STARLINK-11483, 62223

Orbit data source: Space-Track

STARLINK-11483, 62223 is a payload satellite owned by SpaceX/Seattle (US) in LEO that was launched on Thu, 05 Dec 2024 UTC via an FALCON 9 launch vehicle from the Air Force Western Test Range (AFWTR). Payload-class satellites include a variety of spacecraft equipped with specific instruments for various scientific and technological missions. These include communications satellites like Starlink; space stations such as the ISS; scientific satellites like the Hubble; Earth observation satellites from companies like Planet Labs, Umbra, and HawkEye 360; GPS; miniature CubeSats for education and research; and military/defense satellites.

Loading next visibility...
Identifier
62223, 2024-231F
Orbit
LEO
Country
Flag of USUS
Related business
Manufacturer
SpaceX/Seattle
Mission
Operational Commercial Communications
Bus & Motor
STARLINK V2MD, Unknown motor
Mass
960 kg wet, ~910 kg dry
Launch date (UTC)
2024-12-05 (1 year ago)
Launch vehicle
FALCON 9
Launch site
Air Force Western Test Range (AFWTR)
Object type
Payload
Rocket body
Debris
Shape & HBR
Box + 2 Pan, 18.1 m
Radar Cross Section
36.964 m², Large (>1 m²)

Expand to show TLE details & history
Last TLE update: 1 day ago

TLE from 1 day ago
0 STARLINK-11483
1 62223U 24231F   25349.76361767  .00174095  00000-0  14080-2 0  9994
2 62223  53.1563 154.7207 0000777  34.8350 325.2719 15.69777352 60232
Epoch: 2025-12-15T18:19Z
TLE epoch observation values (Epoch: 2025-12-15T18:19:36.566Z)
Latitude
-0°
Longitude
155.16083°
Altitude
360.018 km
Speed
7.695 km/s
True Right ascension
10h 18m 52s
True Declination
0° 00' 00"
Sunlit
Object was in daylight at epoch
Visualization orbit readout
Latitude
Unknown
Longitude
Unknown
Altitude
Unknown
Speed
Unknown
Apparent Right ascension
Unknown
Apparent Declination
Unknown
Sunlit
N/A
Visualization observer readout
Local Sidereal Time
18:29:01
Azimuth
Unknown
Elevation
Unknown
Doppler factor
Unknown
Orbital elements
Apogee altitude
360.319 km
Perigee altitude
359.272 km
Semi-major axis
6,737.932 km
Eccentricity
0.00008
Inclination
53.1563°
RAAN
154.7207°
Arg. of periapsis
34.835°
True anomaly
325.26683°
Mean anomaly
325.2719°
Eccentric anomaly
325.26936°
Mean motion
3.92422 °/min
Orbital period
91.74 mins
BSTAR
0.001408
Loading maneuver chart data...
Computing Atmospheric mass density...
Loading historical data...
Loading historical data...
Loading historical data...
Loading historical data...
Loading historical data...
Loading historical data...
Loading historical data...

Documentation

Showing up to 5 results
|